Leesburg, VA

1:34 PM EDT on August 17, 2019 (GMT -0400)
Leesburg Executive

Weather History for KJYO - April, 2019

Change the Weather History Date:

Monday, April 22, 2019

  Actual Average (WUND) Record (WUND)
Temperature  
Mean Temperature 61 °F -  
Max Temperature 71 °F - - (-1)
Min Temperature 51 °F - - (-1)
Degree Days  
Heating Degree Days 4    
Growing Degree Days 11 (Base 50)    
Moisture  
Dew Point 48 °F    
Average Humidity 64    
Maximum Humidity 82    
Minimum Humidity 43    
Precipitation  
Precipitation 0.00 in - - ()
Sea Level Pressure  
Sea Level Pressure 30.13 in    
Wind  
Wind Speed 10 mph (NNW)    
Max Wind Speed 17 mph    
Max Gust Speed 25 mph    
Visibility 10 miles    
Events      
Averages and records for this station are not official NWS values.
T = Trace of Precipitation, MM = Missing Value Source: NWS Daily Summary

Daily Weather History Graph

Daily Weather History Graph

Search for Another Location

Airport or City:

Astronomy

Apr. 22, 2019 Rise Set
Actual Time 6:23 AM EDT 7:54 PM EDT
Civil Twilight 5:55 AM EDT 8:22 PM EDT
Nautical Twilight 5:22 AM EDT 8:56 PM EDT
Astronomical Twilight 4:46 AM EDT 9:32 PM EDT
Moon 11:34 PM EDT (4/22) 8:45 AM EDT (4/22)
Length of Visible Light 14h 26m
Length of Day
13h 30m
Waning Gibbous, 88% of the Moon is Illuminated
Apr 22
Waning Gibbous
Apr 26
Last Quarter
May 4
New
May 11
First Quarter
May 18
Full

Hourly Weather History & Observations

Time (EDT) Temp. Dew Point Humidity Pressure Visibility Wind Dir Wind Speed Gust Speed Precip Events Conditions
12:15 AM 57.2 °F 44.6 °F 63% 30.13 in 10.0 mi North 5.8 mph - N/A   Mostly Cloudy
12:35 AM 57.2 °F 44.6 °F 63% 30.14 in 10.0 mi North 8.1 mph - N/A   Overcast
12:55 AM 55.4 °F 44.6 °F 67% 30.14 in 10.0 mi North 10.4 mph - N/A   Overcast
1:15 AM 55.4 °F 44.6 °F 67% 30.14 in 10.0 mi North 10.4 mph - N/A   Overcast
1:35 AM 55.4 °F 44.6 °F 67% 30.14 in 10.0 mi North 8.1 mph - N/A   Overcast
1:55 AM 55.4 °F 44.6 °F 67% 30.13 in 10.0 mi NNW 8.1 mph - N/A   Overcast
2:15 AM 55.4 °F 44.6 °F 67% 30.13 in 10.0 mi NNW 8.1 mph - N/A   Overcast
2:35 AM 55.4 °F 44.6 °F 67% 30.12 in 10.0 mi North 8.1 mph - N/A   Overcast
2:55 AM 53.6 °F 44.6 °F 72% 30.11 in 10.0 mi NNW 11.5 mph - N/A   Mostly Cloudy
3:15 AM 53.6 °F 44.6 °F 72% 30.11 in 10.0 mi NNW 11.5 mph 18.4 mph N/A   Scattered Clouds
3:35 AM 53.6 °F 44.6 °F 72% 30.12 in 10.0 mi NNW 12.7 mph 19.6 mph N/A   Clear
3:55 AM 53.6 °F 44.6 °F 72% 30.12 in 10.0 mi NNW 9.2 mph 18.4 mph N/A   Clear
4:15 AM 53.6 °F 44.6 °F 72% 30.12 in 10.0 mi NNW 9.2 mph 17.3 mph N/A   Clear
4:35 AM 53.6 °F 44.6 °F 72% 30.12 in 10.0 mi NNW 11.5 mph 18.4 mph N/A   Clear
4:55 AM 51.8 °F 44.6 °F 76% 30.12 in 10.0 mi NNW 9.2 mph - N/A   Clear
5:15 AM 51.8 °F 44.6 °F 76% 30.12 in 10.0 mi NW 9.2 mph - N/A   Clear
5:35 AM 51.8 °F 44.6 °F 76% 30.13 in 10.0 mi NW 9.2 mph - N/A   Scattered Clouds
5:55 AM 51.8 °F 44.6 °F 76% 30.14 in 10.0 mi NW 10.4 mph - N/A   Mostly Cloudy
6:15 AM 51.8 °F 44.6 °F 76% 30.15 in 10.0 mi NW 11.5 mph - N/A   Mostly Cloudy
6:35 AM 51.8 °F 44.6 °F 76% 30.15 in 10.0 mi NW 8.1 mph - N/A   Scattered Clouds
6:55 AM 51.8 °F 44.6 °F 76% 30.15 in 10.0 mi NW 11.5 mph - N/A   Scattered Clouds
7:15 AM 51.8 °F 44.6 °F 76% 30.16 in 10.0 mi NW 11.5 mph - N/A   Scattered Clouds
7:35 AM 51.8 °F 46.4 °F 82% 30.16 in 10.0 mi NW 11.5 mph - N/A   Clear
7:55 AM 53.6 °F 46.4 °F 77% 30.18 in 10.0 mi NNW 12.7 mph 21.9 mph N/A   Scattered Clouds
8:15 AM 53.6 °F 46.4 °F 77% 30.18 in 10.0 mi NW 11.5 mph - N/A   Mostly Cloudy
8:35 AM 53.6 °F 46.4 °F 77% 30.18 in 10.0 mi NNW 13.8 mph - N/A   Mostly Cloudy
8:55 AM 55.4 °F 48.2 °F 77% 30.18 in 10.0 mi NNW 12.7 mph 16.1 mph N/A   Mostly Cloudy
9:15 AM 57.2 °F 48.2 °F 72% 30.18 in 10.0 mi NNW 13.8 mph 20.7 mph N/A   Overcast
9:35 AM 57.2 °F 46.4 °F 67% 30.18 in 10.0 mi North 17.3 mph 25.3 mph N/A   Overcast
9:55 AM 57.2 °F 46.4 °F 67% 30.19 in 10.0 mi North 13.8 mph 19.6 mph N/A   Overcast
10:15 AM 59.0 °F 48.2 °F 67% 30.19 in 10.0 mi NNW 16.1 mph 19.6 mph N/A   Overcast
10:35 AM 59.0 °F 48.2 °F 67% 30.19 in 10.0 mi NNW 16.1 mph 19.6 mph N/A   Overcast
10:55 AM 60.8 °F 50.0 °F 68% 30.19 in 10.0 mi NNW 13.8 mph 21.9 mph N/A   Mostly Cloudy
11:15 AM 62.6 °F 50.0 °F 63% 30.19 in 10.0 mi North 12.7 mph 19.6 mph N/A   Scattered Clouds
11:35 AM 62.6 °F 50.0 °F 63% 30.18 in 10.0 mi North 13.8 mph 19.6 mph N/A   Clear
11:55 AM 62.6 °F 50.0 °F 63% 30.18 in 10.0 mi North 12.7 mph 17.3 mph N/A   Scattered Clouds
12:15 PM 62.6 °F 50.0 °F 63% 30.18 in 10.0 mi North 12.7 mph 16.1 mph N/A   Overcast
12:35 PM 64.4 °F 50.0 °F 59% 30.17 in 10.0 mi North 12.7 mph 17.3 mph N/A   Overcast
12:55 PM 66.2 °F 51.8 °F 60% 30.16 in 10.0 mi North 11.5 mph 18.4 mph N/A   Scattered Clouds
1:15 PM 66.2 °F 51.8 °F 60% 30.15 in 10.0 mi NNW 10.4 mph 16.1 mph N/A   Clear
1:35 PM 68.0 °F 50.0 °F 52% 30.14 in 10.0 mi North 10.4 mph 18.4 mph N/A   Clear
1:55 PM 68.0 °F 51.8 °F 56% 30.13 in 10.0 mi North 11.5 mph 19.6 mph N/A   Clear
2:15 PM 68.0 °F 50.0 °F 52% 30.13 in 10.0 mi NNW 11.5 mph 17.3 mph N/A   Clear
2:35 PM 69.8 °F 51.8 °F 53% 30.12 in 10.0 mi NNW 11.5 mph - N/A   Clear
2:55 PM 69.8 °F 51.8 °F 53% 30.11 in 10.0 mi NNW 13.8 mph 19.6 mph N/A   Scattered Clouds
3:15 PM 69.8 °F 50.0 °F 49% 30.10 in 10.0 mi NNW 13.8 mph 20.7 mph N/A   Scattered Clouds
3:35 PM 69.8 °F 50.0 °F 49% 30.10 in 10.0 mi NNW 12.7 mph 19.6 mph N/A   Clear
3:55 PM 69.8 °F 50.0 °F 49% 30.09 in 10.0 mi North 11.5 mph 18.4 mph N/A   Scattered Clouds
4:15 PM 69.8 °F 50.0 °F 49% 30.08 in 10.0 mi NNW 12.7 mph 17.3 mph N/A   Clear
4:35 PM 71.6 °F 50.0 °F 46% 30.08 in 10.0 mi NW 10.4 mph 16.1 mph N/A   Clear
4:55 PM 71.6 °F 50.0 °F 46% 30.08 in 10.0 mi NNW 11.5 mph 17.3 mph N/A   Scattered Clouds
5:15 PM 71.6 °F 50.0 °F 46% 30.08 in 10.0 mi NW 12.7 mph - N/A   Scattered Clouds
5:35 PM 71.6 °F 50.0 °F 46% 30.08 in 10.0 mi NNW 11.5 mph 16.1 mph N/A   Scattered Clouds
5:55 PM 71.6 °F 50.0 °F 46% 30.08 in 10.0 mi NNW 9.2 mph - N/A   Scattered Clouds
6:15 PM 71.6 °F 50.0 °F 46% 30.08 in 10.0 mi NNW 11.5 mph - N/A   Scattered Clouds
6:35 PM 71.6 °F 48.2 °F 43% 30.08 in 10.0 mi North 9.2 mph 16.1 mph N/A   Clear
6:55 PM 69.8 °F 50.0 °F 49% 30.08 in 10.0 mi NNW 9.2 mph - N/A   Clear
7:15 PM 69.8 °F 50.0 °F 49% 30.08 in 10.0 mi North 8.1 mph - N/A   Clear
7:35 PM 69.8 °F 50.0 °F 49% 30.08 in 10.0 mi NNW 5.8 mph - N/A   Clear
7:55 PM 68.0 °F 50.0 °F 52% 30.08 in 10.0 mi NW 3.5 mph - N/A   Clear
8:15 PM 64.4 °F 51.8 °F 64% 30.09 in 10.0 mi WNW 3.5 mph - N/A   Clear
8:35 PM 64.4 °F 50.0 °F 59% 30.09 in 10.0 mi Calm Calm - N/A   Clear
8:55 PM 62.6 °F 50.0 °F 63% 30.09 in 10.0 mi NW 3.5 mph - N/A   Clear
9:15 PM 62.6 °F 50.0 °F 63% 30.10 in 10.0 mi Calm Calm - N/A   Clear
9:35 PM 60.8 °F 50.0 °F 68% 30.10 in 10.0 mi Calm Calm - N/A   Clear
9:55 PM 60.8 °F 50.0 °F 68% 30.10 in 10.0 mi NW 3.5 mph - N/A   Clear
10:15 PM 59.0 °F 50.0 °F 72% 30.10 in 10.0 mi NW 4.6 mph - N/A   Clear
10:35 PM 59.0 °F 50.0 °F 72% 30.11 in 10.0 mi WNW 3.5 mph - N/A   Clear
10:55 PM 59.0 °F 50.0 °F 72% 30.10 in 10.0 mi Calm Calm - N/A   Clear
11:15 PM 55.4 °F 50.0 °F 82% 30.11 in 10.0 mi WSW 3.5 mph - N/A   Clear
11:35 PM 55.4 °F 50.0 °F 82% 30.11 in 10.0 mi West 3.5 mph - N/A   Clear
11:55 PM 55.4 °F 50.0 °F 82% 30.10 in 10.0 mi West 3.5 mph - N/A   Clear